#timestamp,LO_Frequency,Hit 
1502373615.1,286046996.0,N
1502373635.8,286046996.0,N
1502373655.7,286046991.7,P
1502373675.5,286046998.0,N
1502373695.3,286046994.5,N
1502373715.2,286046990.8,P
1502373735.0,286046994.3,N
1502373735.9,286046994.3,P
1502373755.8,286046991.4,P
1502373775.6,286046995.3,P
1502373795.4,286046995.3,N
1502373815.3,286046995.4,N
1502373835.1,286046995.6,N
1502373836.0,286046995.6,N
1502373855.8,286046993.9,P
1502373875.7,286047005.2,P
1502373895.5,286047006.1,N
1502373915.3,286047011.6,N
1502373935.2,286047018.4,N
1502373955.9,286047020.7,N
1502373975.7,286047029.8,P
1502373995.6,286047022.5,N
1502374015.4,286047024.9,N
1502374035.2,286047028.0,P
1502374055.1,286047009.1,N
1502374056.0,286047009.1,N
1502374075.8,286047008.5,N
1502374095.6,286047010.2,N
1502374115.5,286047009.2,N
1502374135.3,286047009.1,N
1502374155.1,286047010.1,N
1502374175.9,286047005.1,N
1502374195.7,286047001.5,N
1502374215.5,286047001.2,N
1502374235.4,286046996.1,N
1502374255.2,286046997.1,N
1502374275.0,286046997.7,N
1502374275.9,286046997.7,N
1502374295.7,286046996.5,N
1502374315.7,286046997.4,N
1502374335.5,286046997.1,N
1502374355.3,286046996.5,N
1502374375.2,286046993.0,N
1502374395.9,286046988.6,N
1502374415.7,286046990.3,N
1502374435.6,286046990.7,N
1502374455.4,286046991.8,N
1502374475.2,286046991.1,N
1502374495.1,286046992.7,N
1502374496.0,286046992.7,N
1502374515.8,286046990.4,N
1502374535.6,286046992.9,N
1502374555.4,286046990.7,N
1502374575.3,286046991.1,N
1502374595.1,286046990.6,N
1502374615.8,286046988.9,N
1502374635.7,286046988.2,N
1502374655.5,286046987.4,N
1502374675.3,286046986.7,N
1502374695.2,286046984.5,N
1502374715.9,286046980.5,P
1502374735.7,286046985.9,N
1502374755.6,286046987.8,N
1502374775.4,286046994.1,N
1502374795.2,286046994.1,N
1502374815.1,286046994.8,N
1502374816.0,286046994.8,N
1502374835.8,286046993.8,N
1502374855.6,286046996.2,N
1502374875.5,286046997.2,N
1502374895.3,286046998.2,N
1502374915.1,286046998.5,N
1502374935.9,286047002.5,N
1502374955.7,286047004.8,N
1502374975.5,286047008.7,N
1502374995.4,286047012.2,N
1502375015.2,286047015.5,N
1502375035.0,286047015.9,N
1502375035.9,286047015.9,N
1502375055.8,286047016.4,N
1502375075.6,286047017.9,N
1502375095.4,286047017.9,N
1502375115.2,286047017.8,N
1502375135.1,286047019.1,N
1502375136.0,286047019.1,N
1502375155.8,286047022.0,N
1502375175.6,286047024.7,N
1502375195.5,286047025.8,N
1502375215.3,286047028.7,N
1502375235.1,286047033.2,N
1502375255.9,286047032.8,N
1502375275.7,286047033.0,N
1502375295.5,286047034.4,N
1502375315.4,286047036.1,N
1502375335.2,286047036.6,N
1502375355.0,286047039.7,N
1502375355.9,286047039.7,N
1502375375.8,286047044.3,P
1502375395.6,286047022.6,N
1502375415.4,286047021.6,N
1502375435.3,286047017.9,N
1502375455.1,286047017.5,N
1502375456.0,286047017.5,N
1502375475.8,286047017.6,N
1502375495.7,286047017.1,N
1502375515.5,286047016.2,N
1502375535.3,286047018.8,N
1502375555.2,286047014.3,N
1502375575.9,286047014.8,N
1502375595.7,286047016.1,N
1502375615.5,286047021.2,N
1502375635.4,286047023.1,P
1502375655.2,286047004.6,N
1502375675.0,286047008.6,N
1502375676.0,286047008.6,N
1502375695.8,286047009.8,N
1502375715.6,286047014.7,N
1502375735.4,286047016.4,N
1502375755.3,286047018.1,P
1502375775.1,286047005.6,N
1502375795.9,286047008.4,N
1502375815.7,286047010.1,N
1502375835.5,286047009.3,N
1502375855.4,286047012.2,P
1502375875.2,286046999.6,N
1502375895.0,286047001.1,N
1502375895.9,286047001.1,N
1502375915.8,286047001.3,N
1502375935.6,286047004.9,N
1502375955.4,286047006.7,N
1502375975.3,286047007.0,N
1502375995.1,286047008.7,N
1502375996.0,286047008.7,N
1502376015.8,286047008.3,N
1502376035.7,286047006.5,N
1502376055.5,286047007.7,N
1502376075.3,286047009.9,N
1502376095.1,286047010.6,N
1502376115.9,286047011.7,P
1502376135.7,286047006.3,N
1502376155.5,286047008.2,P
1502376175.4,286047006.2,N
1502376195.2,286047008.1,P
1502376215.1,286047002.5,P
1502376216.0,286047002.5,N
1502376235.8,286046996.5,N
1502376255.6,286046998.6,N
1502376275.4,286046995.0,N
1502376295.3,286046991.7,N
1502376315.1,286046990.2,N
1502376335.8,286046991.2,N
1502376355.7,286046989.3,N
1502376375.5,286046985.3,N
1502376395.3,286046986.4,N
1502376415.2,286046981.8,N
1502376435.9,286046979.1,N
1502376455.7,286046977.6,N
1502376475.6,286046978.1,N
1502376495.4,286046977.5,N
1502376515.2,286046979.9,N
1502376535.1,286046979.0,N
1502376536.0,286046979.0,N
1502376555.8,286046979.4,N
1502376575.6,286046977.7,N
1502376595.4,286046977.6,N
1502376615.3,286046977.8,N
1502376635.1,286046978.0,N
1502376655.8,286046977.4,N
1502376675.7,286046976.0,N
1502376695.5,286046972.6,N
1502376715.3,286046976.8,N
1502376735.2,286046973.9,N
1502376755.0,286046972.6,N
1502376755.9,286046972.6,P
1502376775.8,286046993.7,N
1502376795.6,286046993.8,N
1502376815.4,286046991.7,N
1502376835.2,286046994.8,N
1502376855.1,286046996.2,N
1502376856.0,286046996.2,N
1502376875.8,286046998.0,N
1502376895.6,286046998.3,N
1502376915.5,286046998.4,N
1502376935.3,286047000.6,N
1502376955.1,286047000.2,N
1502376975.9,286046998.8,N
1502376995.7,286046997.7,N
1502377015.5,286046997.2,N
1502377035.4,286046995.2,N
1502377055.2,286046996.5,N
1502377075.0,286046997.1,N
1502377075.9,286046997.1,N
1502377095.8,286046995.5,N
1502377115.6,286046996.9,N
1502377135.4,286046996.5,N
1502377155.3,286046999.3,N
1502377175.1,286046997.3,N
1502377176.0,286046997.3,N
1502377195.8,286046999.3,N
